This is the latest recevied weather packets stored in our database for station/object K5NCO. If no packets are shown the sender has not sent any weather packets the latest 10 day(s).
| Time | Temp. | Humidity | Pressure | Rain* | Wind** | Luminosity | Snow |
|---|---|---|---|---|---|---|---|
| 1777579420 | 17.22° C | 99% | 1013.7 hPa | 0 mm | - | 150 W/m² | - |
| 1777579116 | 17.22° C | 99% | 1014 hPa | 0 mm | - | 113 W/m² | - |
| 1777578815 | 17.22° C | 99% | 1013.9 hPa | 0 mm | - | 92 W/m² | - |
| 1777578511 | 17.22° C | 99% | 1013.7 hPa | 0 mm | - | 167 W/m² | - |
| 1777578206 | 17.22° C | 99% | 1014 hPa | 0 mm | - | 166 W/m² | - |
| 1777577902 | 17.22° C | 99% | 1014.2 hPa | 0 mm | - | 224 W/m² | - |
| 1777577598 | 17.22° C | 99% | 1014.1 hPa | 0 mm | - | 292 W/m² | - |
| 1777577295 | 17.22° C | 99% | 1013.7 hPa | 1.27 mm | - | 200 W/m² | - |
| 1777576991 | 17.22° C | 99% | 1014.2 hPa | 1.27 mm | - | 154 W/m² | - |
| 1777576688 | 17.22° C | 99% | 1014.4 hPa | 4.32 mm | - | 127 W/m² | - |
| 1777576387 | 17.22° C | 99% | 1014.5 hPa | 4.83 mm | - | 113 W/m² | - |
| 1777576084 | 16.67° C | 99% | 1012 hPa | 4.83 mm | - | 86 W/m² | - |
| 1777575779 | 16.67° C | 99% | 1014.2 hPa | 4.83 mm | - | 34 W/m² | - |
| 1777575476 | 17.22° C | 99% | 1014.6 hPa | 7.87 mm | - | 20 W/m² | - |
| 1777575172 | 17.22° C | 99% | 1014.8 hPa | 11.94 mm | - | 18 W/m² | - |
| 1777574868 | 17.22° C | 99% | 1014.9 hPa | 14.99 mm | - | 17 W/m² | - |
| 1777574566 | 17.22° C | 99% | 1015.4 hPa | 19.81 mm | - | 14 W/m² | - |
| 1777574262 | 17.22° C | 99% | 1015.8 hPa | 7.87 mm | - | 7 W/m² | - |
| 1777573957 | 17.22° C | 99% | 1015.5 hPa | 0 mm | - | 4 W/m² | - |
| 1777573652 | 17.22° C | 99% | 1014.9 hPa | 0 mm | - | 8 W/m² | - |
| 1777573349 | 17.22° C | 99% | 1014.4 hPa | 0 mm | - | 12 W/m² | - |
| 1777573044 | 17.22° C | 99% | 1014.2 hPa | 0 mm | - | 21 W/m² | - |
| 1777572741 | 17.22° C | 99% | 1013.9 hPa | 0 mm | - | 42 W/m² | - |
| 1777572441 | 17.22° C | 99% | 1013.9 hPa | 0 mm | - | 42 W/m² | - |
| 1777572138 | 17.22° C | 99% | 1014.1 hPa | 0 mm | - | 52 W/m² | - |
* Rain latest hour (hover to see other rain measurements)
** Current wind speed in m/s (hover to see current wind gust speed)